When you browse on this site, cookies collect data to enhance your experience and personalize the content and advertising you see.
Visit our Privacy Policy to learn more. By continuing to use the site, you agree to this use of cookies and data.
  • In Switzerland
  • List of Countries
  • For 7 days
  • Water Temperature
  • Satellite Maps
  • Weather Map
  • Weather Widgets
  • user-avatar
    Login

    Hourly Weather Plachynda

    Today, 19 April, Friday

    Time Temperature Precipitation Wind Pressure Humidity
    00:00 +8°C° 0 mm 2 mps 751 mmHg 62%
    01:00 +9°C° 0 mm 1 mps 751 mmHg 63%
    02:00 +8°C° 0 mm 1 mps 751 mmHg 65%
    03:00 +8°C° 0 mm 1 mps 750 mmHg 67%
    04:00 +7°C° 0 mm 1 mps 750 mmHg 69%
    05:00 +7°C° 0 mm 1 mps 750 mmHg 72%
    06:00 +8°C° 0.2 mm 1 mps 749 mmHg 73%
    07:00 +8°C° 0.2 mm 1 mps 749 mmHg 74%
    08:00 +9°C° 0.2 mm 1 mps 749 mmHg 76%
    09:00 +8°C° 0.7 mm 2 mps 749 mmHg 78%
    10:00 +8°C° 0.7 mm 3 mps 750 mmHg 80%
    11:00 +7°C° 0.7 mm 4 mps 750 mmHg 82%
    12:00 +7°C° 0.1 mm 5 mps 750 mmHg 73%
    13:00 +8°C° 0.1 mm 5 mps 751 mmHg 64%
    14:00 +8°C° 0.1 mm 5 mps 751 mmHg 55%
    15:00 +9°C° 0 mm 5 mps 751 mmHg 52%
    16:00 +10°C° 0 mm 4 mps 751 mmHg 48%
    17:00 +11°C° 0 mm 3 mps 751 mmHg 45%
    18:00 +9°C° 0 mm 3 mps 752 mmHg 49%
    19:00 +8°C° 0 mm 2 mps 752 mmHg 53%
    20:00 +7°C° 0 mm 2 mps 752 mmHg 57%
    21:00 +7°C° 0.1 mm 2 mps 752 mmHg 61%
    22:00 +7°C° 0.1 mm 2 mps 752 mmHg 65%
    23:00 +7°C° 0.1 mm 3 mps 753 mmHg 69%

    Tomorrow, 20 April, Saturday

    Time Temperature Precipitation Wind Pressure Humidity
    00:00 +5°C° 0 mm 3 mps 753 mmHg 69%
    01:00 +5°C° 0 mm 3 mps 753 mmHg 69%
    02:00 +4°C° 0 mm 3 mps 752 mmHg 70%
    03:00 +4°C° 0 mm 3 mps 753 mmHg 71%
    04:00 +3°C° 0 mm 3 mps 753 mmHg 73%
    05:00 +3°C° 0 mm 3 mps 753 mmHg 74%
    06:00 +4°C° 0 mm 4 mps 753 mmHg 68%
    07:00 +6°C° 0 mm 4 mps 753 mmHg 62%
    08:00 +7°C° 0 mm 5 mps 753 mmHg 55%
    09:00 +8°C° 0 mm 5 mps 753 mmHg 51%
    10:00 +9°C° 0 mm 6 mps 753 mmHg 47%
    11:00 +11°C° 0 mm 6 mps 753 mmHg 42%
    12:00 +11°C° 0 mm 6 mps 753 mmHg 42%
    13:00 +12°C° 0 mm 5 mps 753 mmHg 42%
    14:00 +12°C° 0 mm 5 mps 753 mmHg 42%
    15:00 +12°C° 0 mm 5 mps 752 mmHg 42%
    16:00 +12°C° 0 mm 4 mps 752 mmHg 42%
    17:00 +12°C° 0 mm 4 mps 752 mmHg 43%
    18:00 +11°C° 0 mm 3 mps 752 mmHg 47%
    19:00 +10°C° 0 mm 2 mps 752 mmHg 51%
    20:00 +8°C° 0 mm 2 mps 752 mmHg 55%
    21:00 +10°C° 0 mm 1 mps 752 mmHg 55%
    22:00 +10°C° 0 mm 1 mps 752 mmHg 55%
    23:00 +10°C° 0 mm 1 mps 752 mmHg 56%

    Day after tomorrow, 21 April, Sunday

    Time Temperature Precipitation Wind Pressure Humidity
    00:00 +9°C° 0 mm 1 mps 752 mmHg 57%
    01:00 +9°C° 0 mm 1 mps 751 mmHg 59%
    02:00 +7°C° 0 mm 0 mps 751 mmHg 61%
    03:00 +7°C° 0 mm 0 mps 751 mmHg 61%
    04:00 +7°C° 0 mm 0 mps 751 mmHg 61%
    05:00 +7°C° 0 mm 0 mps 751 mmHg 60%
    06:00 +8°C° 0 mm 0 mps 751 mmHg 58%
    07:00 +10°C° 0 mm 1 mps 751 mmHg 56%
    08:00 +11°C° 0 mm 1 mps 751 mmHg 54%
    09:00 +12°C° 0 mm 1 mps 751 mmHg 52%
    10:00 +12°C° 0 mm 1 mps 751 mmHg 50%
    11:00 +13°C° 0 mm 2 mps 751 mmHg 49%
    12:00 +13°C° 0 mm 2 mps 751 mmHg 47%
    13:00 +14°C° 0 mm 2 mps 751 mmHg 46%
    14:00 +14°C° 0 mm 2 mps 750 mmHg 45%
    15:00 +13°C° 0 mm 3 mps 750 mmHg 45%
    16:00 +13°C° 0 mm 3 mps 750 mmHg 44%
    17:00 +13°C° 0 mm 3 mps 750 mmHg 44%
    18:00 +12°C° 0 mm 4 mps 750 mmHg 48%
    19:00 +10°C° 0 mm 4 mps 751 mmHg 51%
    20:00 +8°C° 0 mm 5 mps 751 mmHg 54%
    21:00 +7°C° 0 mm 4 mps 751 mmHg 55%
    22:00 +6°C° 0 mm 4 mps 751 mmHg 56%
    23:00 +7°C° 0 mm 3 mps 751 mmHg 57%

    22 April, Monday

    Time Temperature Precipitation Wind Pressure Humidity
    00:00 +6°C° 0 mm 2 mps 751 mmHg 57%
    01:00 +6°C° 0 mm 2 mps 751 mmHg 58%
    02:00 +6°C° 0 mm 2 mps 752 mmHg 59%
    03:00 +6°C° 0 mm 2 mps 752 mmHg 60%
    04:00 +6°C° 0 mm 1 mps 752 mmHg 60%
    05:00 +6°C° 0 mm 1 mps 752 mmHg 61%
    06:00 +7°C° 0 mm 2 mps 752 mmHg 56%
    07:00 +8°C° 0 mm 2 mps 753 mmHg 51%
    08:00 +10°C° 0 mm 2 mps 753 mmHg 47%
    09:00 +11°C° 0 mm 3 mps 753 mmHg 44%
    10:00 +12°C° 0 mm 3 mps 753 mmHg 41%
    11:00 +13°C° 0 mm 4 mps 754 mmHg 38%
    12:00 +13°C° 0 mm 4 mps 753 mmHg 38%
    13:00 +13°C° 0 mm 4 mps 753 mmHg 38%
    14:00 +13°C° 0 mm 4 mps 753 mmHg 38%
    15:00 +13°C° 0 mm 4 mps 753 mmHg 38%
    16:00 +13°C° 0 mm 4 mps 753 mmHg 38%
    17:00 +13°C° 0 mm 4 mps 753 mmHg 38%
    18:00 +12°C° 0 mm 4 mps 754 mmHg 42%
    19:00 +10°C° 0 mm 3 mps 754 mmHg 47%
    20:00 +9°C° 0 mm 3 mps 754 mmHg 52%
    21:00 +8°C° 0 mm 2 mps 754 mmHg 52%
    22:00 +8°C° 0 mm 2 mps 755 mmHg 53%
    23:00 +8°C° 0 mm 1 mps 755 mmHg 54%

    23 April, Tuesday

    Time Temperature Precipitation Wind Pressure Humidity
    00:00 +8°C° 0 mm 1 mps 755 mmHg 54%
    01:00 +8°C° 0 mm 1 mps 755 mmHg 55%
    02:00 +7°C° 0 mm 1 mps 754 mmHg 56%
    03:00 +7°C° 0 mm 1 mps 755 mmHg 58%
    04:00 +7°C° 0 mm 1 mps 755 mmHg 59%
    05:00 +6°C° 0 mm 1 mps 755 mmHg 61%
    06:00 +7°C° 0 mm 2 mps 755 mmHg 57%
    07:00 +9°C° 0 mm 3 mps 756 mmHg 54%
    08:00 +11°C° 0 mm 4 mps 756 mmHg 50%
    09:00 +12°C° 0 mm 5 mps 756 mmHg 46%
    10:00 +13°C° 0 mm 6 mps 756 mmHg 42%
    11:00 +15°C° 0 mm 6 mps 756 mmHg 39%
    12:00 +15°C° 0 mm 7 mps 756 mmHg 38%
    13:00 +15°C° 0 mm 7 mps 755 mmHg 38%
    14:00 +15°C° 0 mm 7 mps 755 mmHg 37%
    15:00 +15°C° 0 mm 7 mps 755 mmHg 39%
    16:00 +14°C° 0 mm 7 mps 755 mmHg 41%
    17:00 +12°C° 0 mm 7 mps 755 mmHg 43%
    18:00 +11°C° 0 mm 6 mps 755 mmHg 48%
    19:00 +11°C° 0 mm 4 mps 755 mmHg 53%
    20:00 +9°C° 0 mm 3 mps 755 mmHg 57%
    21:00 +9°C° 0 mm 3 mps 755 mmHg 60%
    22:00 +8°C° 0 mm 3 mps 755 mmHg 63%
    23:00 +7°C° 0 mm 3 mps 755 mmHg 66%

    24 April, Wednesday

    Time Temperature Precipitation Wind Pressure Humidity
    00:00 +7°C° 0 mm 3 mps 755 mmHg 69%
    01:00 +7°C° 0 mm 3 mps 755 mmHg 72%
    02:00 +7°C° 0 mm 3 mps 755 mmHg 75%
    03:00 +7°C° 0 mm 3 mps 755 mmHg 75%
    04:00 +7°C° 0 mm 3 mps 755 mmHg 75%
    05:00 +7°C° 0 mm 3 mps 755 mmHg 76%
    06:00 +7°C° 0 mm 4 mps 755 mmHg 70%
    07:00 +8°C° 0 mm 5 mps 755 mmHg 63%
    08:00 +10°C° 0 mm 6 mps 756 mmHg 57%
    09:00 +10°C° 0 mm 6 mps 755 mmHg 54%
    10:00 +11°C° 0 mm 6 mps 755 mmHg 51%
    11:00 +13°C° 0 mm 6 mps 755 mmHg 48%
    12:00 +13°C° 0 mm 6 mps 755 mmHg 49%
    13:00 +13°C° 0 mm 5 mps 755 mmHg 51%
    14:00 +13°C° 0 mm 5 mps 755 mmHg 52%
    15:00 +13°C° 0 mm 5 mps 754 mmHg 53%
    16:00 +13°C° 0 mm 5 mps 754 mmHg 54%
    17:00 +12°C° 0 mm 5 mps 754 mmHg 55%
    18:00 +11°C° 0 mm 4 mps 754 mmHg 60%
    19:00 +10°C° 0 mm 3 mps 754 mmHg 64%
    20:00 +9°C° 0 mm 2 mps 754 mmHg 69%
    21:00 +9°C° 0 mm 2 mps 754 mmHg 68%
    22:00 +9°C° 0 mm 2 mps 754 mmHg 67%
    23:00 +10°C° 0 mm 1 mps 755 mmHg 66%
    Show more